This is the latest recevied weather packets stored in our database for station/object KA9CBS. If no packets are shown the sender has not sent any weather packets the latest 10 day(s).
| Time | Temp. | Humidity | Pressure | Rain* | Wind** | Luminosity | Snow |
|---|---|---|---|---|---|---|---|
| 1777436891 | 15° C | 99% | 1014.4 hPa | 0 mm | - | 0 W/m² | - |
| 1777436589 | 15° C | 99% | 1014.9 hPa | 0 mm | - | 0 W/m² | - |
| 1777436285 | 15° C | 99% | 1014.5 hPa | 0 mm | - | 0 W/m² | - |
| 1777435980 | 15° C | 99% | 1013.9 hPa | 0 mm | - | 0 W/m² | - |
| 1777435677 | 15° C | 99% | 1013.8 hPa | 0 mm | - | 0 W/m² | - |
| 1777435373 | 15° C | 99% | 1014.2 hPa | 0 mm | - | 0 W/m² | - |
| 1777435071 | 15° C | 99% | 1014 hPa | 1.27 mm | - | 0 W/m² | - |
| 1777434763 | 15° C | 99% | 1014.2 hPa | 7.11 mm | - | 0 W/m² | - |
| 1777434462 | 15° C | 99% | 1014.1 hPa | 8.89 mm | - | 0 W/m² | - |
| 1777434159 | 15° C | 99% | 1014.4 hPa | 1.27 mm | - | 0 W/m² | - |
| 1777433856 | 15° C | 99% | 1015.5 hPa | 0 mm | - | 0 W/m² | - |
| 1777433553 | 15° C | 99% | 1015.4 hPa | 0 mm | - | 0 W/m² | - |
| 1777433253 | 15° C | 99% | 1015.3 hPa | 1.78 mm | - | 0 W/m² | - |
| 1777432951 | 15° C | 99% | 1014.8 hPa | 1.78 mm | - | 0 W/m² | - |
| 1777432649 | 15° C | 99% | 1014.7 hPa | 0 mm | - | 0 W/m² | - |
| 1777432347 | 15.56° C | 99% | 1014.9 hPa | 0 mm | - | 0 W/m² | - |
| 1777432047 | 15.56° C | 99% | 1014.7 hPa | 0 mm | - | 0 W/m² | - |
| 1777431743 | 15.56° C | 99% | 1014.4 hPa | 0 mm | - | 0 W/m² | - |
| 1777431438 | 15.56° C | 99% | 1014.1 hPa | 0 mm | - | 0 W/m² | - |
| 1777431134 | 15.56° C | 99% | 1013.9 hPa | 0 mm | - | 0 W/m² | - |
| 1777430824 | 15.56° C | 99% | 1013.9 hPa | 0 mm | - | 0 W/m² | - |
| 1777430521 | 15.56° C | 99% | 1013.7 hPa | 0 mm | - | 0 W/m² | - |
| 1777430216 | 15.56° C | 99% | 1013.3 hPa | 0 mm | - | 0 W/m² | - |
| 1777429912 | 15.56° C | 99% | 1012.7 hPa | 0 mm | - | 0 W/m² | - |
| 1777429610 | 15.56° C | 99% | 1012.5 hPa | 0 mm | - | 0 W/m² | - |
* Rain latest hour (hover to see other rain measurements)
** Current wind speed in m/s (hover to see current wind gust speed)